Data supplied by UK-AIR on 8/11/2015
All Data GMT hour ending 
Status: R =Ratified P=Provisional,P*=As supplied
,,Manchester South,,,,,,,,,,,,,,,,,,,,,,,
Date,time,"Nitric oxide",status,unit,"Nitrogen dioxide",status,unit,"Nitrogen oxides as nitrogen dioxide",status,unit,"Ozone",status,unit
 
01-01-2014,01:00,0.32804,R,ugm-3,5.36775,R,ugm-3,5.87074,R,ugm-3,56.87745,R,ugm-3
01-01-2014,02:00,0.14095,R,ugm-3,6.08366,R,ugm-3,6.29978,R,ugm-3,56.74440,R,ugm-3
01-01-2014,03:00,-0.03524,R,ugm-3,5.20917,R,ugm-3,5.15514,R,ugm-3,58.57380,R,ugm-3
01-01-2014,04:00,0.07047,R,ugm-3,4.34855,R,ugm-3,4.45660,R,ugm-3,62.06627,R,ugm-3
01-01-2014,05:00,0.24665,R,ugm-3,4.07841,R,ugm-3,4.45660,R,ugm-3,62.06627,R,ugm-3
01-01-2014,06:00,0.07047,R,ugm-3,3.59693,R,ugm-3,3.70499,R,ugm-3,64.36133,R,ugm-3
01-01-2014,07:00,0.10540,R,ugm-3,4.61678,R,ugm-3,4.77838,R,ugm-3,63.71272,R,ugm-3
01-01-2014,08:00,0.45714,R,ugm-3,4.72244,R,ugm-3,5.42337,R,ugm-3,62.71487,R,ugm-3
01-01-2014,09:00,0.42190,R,ugm-3,5.95792,R,ugm-3,6.60482,R,ugm-3,59.87100,R,ugm-3
01-01-2014,10:00,0.35174,R,ugm-3,7.51421,R,ugm-3,8.05354,R,ugm-3,57.42627,R,ugm-3
01-01-2014,11:00,0.70348,R,ugm-3,6.17020,R,ugm-3,7.24885,R,ugm-3,63.16391,R,ugm-3
01-01-2014,12:00,0.80919,R,ugm-3,4.55797,R,ugm-3,5.79870,R,ugm-3,69.35058,R,ugm-3
01-01-2014,13:00,0.91458,R,ugm-3,5.57733,R,ugm-3,6.97967,R,ugm-3,73.09251,R,ugm-3
01-01-2014,14:00,0.87935,R,ugm-3,5.36313,R,ugm-3,6.71144,R,ugm-3,72.14456,R,ugm-3
01-01-2014,15:00,0.66824,R,ugm-3,7.35117,R,ugm-3,8.37579,R,ugm-3,66.85595,R,ugm-3
01-01-2014,16:00,0.77395,R,ugm-3,9.33730,R,ugm-3,10.52401,R,ugm-3,61.36778,R,ugm-3
01-01-2014,17:00,0.77395,R,ugm-3,10.41165,R,ugm-3,11.59836,R,ugm-3,58.12476,R,ugm-3
01-01-2014,18:00,0.42190,R,ugm-3,6.70905,R,ugm-3,7.35595,R,ugm-3,66.85595,R,ugm-3
01-01-2014,19:00,0.31650,R,ugm-3,6.17259,R,ugm-3,6.65789,R,ugm-3,69.94929,R,ugm-3
01-01-2014,20:00,0.38666,R,ugm-3,6.81615,R,ugm-3,7.40903,R,ugm-3,66.80606,R,ugm-3
01-01-2014,21:00,0.24634,R,ugm-3,5.90389,R,ugm-3,6.28161,R,ugm-3,66.75617,R,ugm-3
01-01-2014,22:00,0.28127,R,ugm-3,5.90437,R,ugm-3,6.33563,R,ugm-3,63.16391,R,ugm-3
01-01-2014,23:00,0.17618,R,ugm-3,2.73679,R,ugm-3,3.00693,R,ugm-3,71.59574,R,ugm-3
01-01-2014,24:00,0.10540,R,ugm-3,5.10064,R,ugm-3,5.26224,R,ugm-3,65.35918,R,ugm-3
02-01-2014,01:00,0.32887,R,ugm-3,7.15530,R,ugm-3,7.65956,R,ugm-3,61.33451,R,ugm-3
02-01-2014,02:00,0.32887,R,ugm-3,5.79551,R,ugm-3,6.29978,R,ugm-3,59.67143,R,ugm-3
02-01-2014,03:00,0.03524,R,ugm-3,6.33563,R,ugm-3,6.38966,R,ugm-3,56.07917,R,ugm-3
02-01-2014,04:00,0.07047,R,ugm-3,5.20726,R,ugm-3,5.31532,R,ugm-3,55.77982,R,ugm-3
02-01-2014,05:00,0.28189,R,ugm-3,4.39971,R,ugm-3,4.83193,R,ugm-3,54.68218,R,ugm-3
02-01-2014,06:00,0.21142,R,ugm-3,6.27969,R,ugm-3,6.60386,R,ugm-3,51.63874,R,ugm-3
02-01-2014,07:00,1.44344,R,ugm-3,17.81446,R,ugm-3,20.02770,R,ugm-3,37.61895,R,ugm-3
02-01-2014,08:00,0.91583,R,ugm-3,17.65668,R,ugm-3,19.06093,R,ugm-3,42.60820,R,ugm-3
02-01-2014,09:00,0.95044,R,ugm-3,20.82569,R,ugm-3,22.28302,R,ugm-3,42.95744,R,ugm-3
02-01-2014,10:00,1.76025,R,ugm-3,18.67078,R,ugm-3,21.36980,R,ugm-3,47.89680,R,ugm-3
02-01-2014,11:00,1.90151,R,ugm-3,13.35355,R,ugm-3,16.26916,R,ugm-3,54.48261,R,ugm-3
02-01-2014,12:00,1.61962,R,ugm-3,8.46998,R,ugm-3,10.95337,R,ugm-3,60.91874,R,ugm-3
02-01-2014,13:00,1.51391,R,ugm-3,7.98756,R,ugm-3,10.30885,R,ugm-3,60.36993,R,ugm-3
02-01-2014,14:00,0.56347,R,ugm-3,5.95505,R,ugm-3,6.81902,R,ugm-3,62.86455,R,ugm-3
02-01-2014,15:00,0.52823,R,ugm-3,6.54649,R,ugm-3,7.35643,R,ugm-3,60.81896,R,ugm-3
02-01-2014,16:00,1.02092,R,ugm-3,12.93185,R,ugm-3,14.49723,R,ugm-3,52.73637,R,ugm-3
02-01-2014,17:00,1.02060,R,ugm-3,16.63684,R,ugm-3,18.20174,R,ugm-3,50.99014,R,ugm-3
02-01-2014,18:00,1.79518,R,ugm-3,23.34206,R,ugm-3,26.09463,R,ugm-3,43.50626,R,ugm-3
02-01-2014,19:00,1.19678,R,ugm-3,24.47474,R,ugm-3,26.30978,R,ugm-3,40.91185,R,ugm-3
02-01-2014,20:00,0.95044,R,ugm-3,18.08699,R,ugm-3,19.54432,R,ugm-3,46.69938,R,ugm-3
02-01-2014,21:00,0.49300,R,ugm-3,10.73486,R,ugm-3,11.49078,R,ugm-3,56.07917,R,ugm-3
02-01-2014,22:00,0.45807,R,ugm-3,8.74778,R,ugm-3,9.45014,R,ugm-3,59.77122,R,ugm-3
02-01-2014,23:00,0.10571,R,ugm-3,8.53597,R,ugm-3,8.69805,R,ugm-3,60.36993,R,ugm-3
02-01-2014,24:00,0.35236,R,ugm-3,7.24503,R,ugm-3,7.78531,R,ugm-3,62.71487,R,ugm-3
03-01-2014,01:00,0.32846,R,ugm-3,4.58363,R,ugm-3,5.08725,R,ugm-3,66.39029,R,ugm-3
03-01-2014,02:00,-0.09396,R,ugm-3,2.22169,R,ugm-3,2.07761,R,ugm-3,72.51043,R,ugm-3
03-01-2014,03:00,-0.03524,R,ugm-3,1.61224,R,ugm-3,1.55821,R,ugm-3,79.52865,R,ugm-3
03-01-2014,04:00,0.03524,R,ugm-3,1.39708,R,ugm-3,1.45111,R,ugm-3,80.72607,R,ugm-3
03-01-2014,05:00,0.17618,R,ugm-3,1.77193,R,ugm-3,2.04207,R,ugm-3,79.17940,R,ugm-3
03-01-2014,06:00,0.10571,R,ugm-3,2.95481,R,ugm-3,3.11690,R,ugm-3,77.38327,R,ugm-3
03-01-2014,07:00,0.24665,R,ugm-3,3.16901,R,ugm-3,3.54721,R,ugm-3,79.82800,R,ugm-3
03-01-2014,08:00,0.38760,R,ugm-3,5.53191,R,ugm-3,6.12622,R,ugm-3,78.83015,R,ugm-3
03-01-2014,09:00,0.45807,R,ugm-3,6.71431,R,ugm-3,7.41668,R,ugm-3,77.48305,R,ugm-3
03-01-2014,10:00,0.45807,R,ugm-3,6.60625,R,ugm-3,7.30862,R,ugm-3,77.73252,R,ugm-3
03-01-2014,11:00,1.58407,R,ugm-3,11.65191,R,ugm-3,14.08078,R,ugm-3,77.58284,R,ugm-3
03-01-2014,12:00,2.81640,R,ugm-3,21.15464,R,ugm-3,25.47307,R,ugm-3,76.58499,R,ugm-3
03-01-2014,13:00,1.79518,R,ugm-3,10.73678,R,ugm-3,13.48934,R,ugm-3,80.57639,R,ugm-3
03-01-2014,14:00,1.05646,R,ugm-3,7.30145,R,ugm-3,8.92133,R,ugm-3,77.63273,R,ugm-3
03-01-2014,15:00,3.62621,R,ugm-3,15.61365,R,ugm-3,21.17377,R,ugm-3,72.69337,R,ugm-3
03-01-2014,16:00,0.28189,R,ugm-3,5.69399,R,ugm-3,6.12622,R,ugm-3,79.22929,R,ugm-3
03-01-2014,17:00,0.42252,R,ugm-3,8.43413,R,ugm-3,9.08198,R,ugm-3,75.53725,R,ugm-3
03-01-2014,18:00,1.51360,R,ugm-3,15.30622,R,ugm-3,17.62703,R,ugm-3,72.84305,R,ugm-3
03-01-2014,19:00,0.21142,R,ugm-3,4.29787,R,ugm-3,4.62203,R,ugm-3,71.89509,R,ugm-3
03-01-2014,20:00,0.10571,R,ugm-3,4.40640,R,ugm-3,4.56848,R,ugm-3,69.64993,R,ugm-3
03-01-2014,21:00,0.14095,R,ugm-3,3.33110,R,ugm-3,3.54721,R,ugm-3,70.69767,R,ugm-3
03-01-2014,22:00,0.42284,R,ugm-3,3.00597,R,ugm-3,3.65431,R,ugm-3,72.29423,R,ugm-3
03-01-2014,23:00,0.10571,R,ugm-3,2.63256,R,ugm-3,2.79464,R,ugm-3,71.79531,R,ugm-3
03-01-2014,24:00,0.07047,R,ugm-3,2.14869,R,ugm-3,2.25675,R,ugm-3,76.38542,R,ugm-3
04-01-2014,01:00,0.32887,R,ugm-3,2.00366,R,ugm-3,2.50793,R,ugm-3,82.22284,R,ugm-3
04-01-2014,02:00,-0.04698,R,ugm-3,1.64858,R,ugm-3,1.57654,R,ugm-3,80.02757,R,ugm-3
04-01-2014,03:00,0.03524,R,ugm-3,2.84867,R,ugm-3,2.90270,R,ugm-3,72.34413,R,ugm-3
04-01-2014,04:00,0.24665,R,ugm-3,4.08223,R,ugm-3,4.46043,R,ugm-3,69.35058,R,ugm-3
04-01-2014,05:00,0.63425,R,ugm-3,4.77790,R,ugm-3,5.75041,R,ugm-3,67.50455,R,ugm-3
04-01-2014,06:00,0.70473,R,ugm-3,8.27061,R,ugm-3,9.35117,R,ugm-3,59.92089,R,ugm-3
04-01-2014,07:00,0.49331,R,ugm-3,9.56202,R,ugm-3,10.31842,R,ugm-3,60.02068,R,ugm-3
04-01-2014,08:00,0.24665,R,ugm-3,8.97297,R,ugm-3,9.35117,R,ugm-3,62.41552,R,ugm-3
04-01-2014,09:00,0.95138,R,ugm-3,9.71933,R,ugm-3,11.17808,R,ugm-3,66.30713,R,ugm-3
04-01-2014,10:00,1.23327,R,ugm-3,13.96268,R,ugm-3,15.85367,R,ugm-3,59.52175,R,ugm-3
04-01-2014,11:00,1.02185,R,ugm-3,16.59715,R,ugm-3,18.16397,R,ugm-3,56.77767,R,ugm-3
04-01-2014,12:00,1.55039,R,ugm-3,21.64520,R,ugm-3,24.02243,R,ugm-3,50.99014,R,ugm-3
04-01-2014,13:00,2.11417,R,ugm-3,27.33680,R,ugm-3,30.57848,R,ugm-3,48.89465,R,ugm-3
04-01-2014,14:00,1.86752,R,ugm-3,16.75159,R,ugm-3,19.61508,R,ugm-3,52.13766,R,ugm-3
04-01-2014,15:00,2.57224,R,ugm-3,18.46567,R,ugm-3,22.40972,R,ugm-3,45.55185,R,ugm-3
04-01-2014,16:00,0.91614,R,ugm-3,18.15680,R,ugm-3,19.56153,R,ugm-3,41.26110,R,ugm-3
04-01-2014,17:00,0.77520,R,ugm-3,21.81254,R,ugm-3,23.00116,R,ugm-3,35.62325,R,ugm-3
04-01-2014,18:00,1.02185,R,ugm-3,26.37863,R,ugm-3,27.94545,R,ugm-3,29.78582,R,ugm-3
04-01-2014,19:00,1.62087,R,ugm-3,30.61960,R,ugm-3,33.10490,R,ugm-3,28.28905,R,ugm-3
04-01-2014,20:00,0.52854,R,ugm-3,14.55891,R,ugm-3,15.36933,R,ugm-3,51.04003,R,ugm-3
04-01-2014,21:00,0.63425,R,ugm-3,14.07504,R,ugm-3,15.04755,R,ugm-3,51.98799,R,ugm-3
04-01-2014,22:00,0.35236,R,ugm-3,13.11019,R,ugm-3,13.65047,R,ugm-3,51.43917,R,ugm-3
04-01-2014,23:00,0.38760,R,ugm-3,12.35762,R,ugm-3,12.95193,R,ugm-3,56.07917,R,ugm-3
04-01-2014,24:00,0.17618,R,ugm-3,10.85439,R,ugm-3,11.12453,R,ugm-3,56.37853,R,ugm-3
05-01-2014,01:00,0.23491,R,ugm-3,8.09498,R,ugm-3,8.45516,R,ugm-3,58.93967,R,ugm-3
05-01-2014,02:00,0.00000,R,ugm-3,7.30894,R,ugm-3,7.30894,R,ugm-3,57.80878,R,ugm-3
05-01-2014,03:00,0.14095,R,ugm-3,4.45947,R,ugm-3,4.67558,R,ugm-3,61.26799,R,ugm-3
05-01-2014,04:00,0.14095,R,ugm-3,4.29834,R,ugm-3,4.51446,R,ugm-3,60.36993,R,ugm-3
05-01-2014,05:00,0.28189,R,ugm-3,5.37173,R,ugm-3,5.80396,R,ugm-3,58.32433,R,ugm-3
05-01-2014,06:00,0.10571,R,ugm-3,6.87878,R,ugm-3,7.04087,R,ugm-3,56.97724,R,ugm-3
05-01-2014,07:00,0.66949,R,ugm-3,7.73367,R,ugm-3,8.76021,R,ugm-3,56.82756,R,ugm-3
05-01-2014,08:00,0.28189,R,ugm-3,9.13362,R,ugm-3,9.56585,R,ugm-3,58.37423,R,ugm-3
05-01-2014,09:00,0.42284,R,ugm-3,10.15394,R,ugm-3,10.80228,R,ugm-3,55.58025,R,ugm-3
05-01-2014,10:00,0.70473,R,ugm-3,9.66769,R,ugm-3,10.74825,R,ugm-3,57.52605,R,ugm-3
05-01-2014,11:00,0.98661,R,ugm-3,10.41787,R,ugm-3,11.93065,R,ugm-3,58.02498,R,ugm-3
05-01-2014,12:00,0.73996,R,ugm-3,10.25865,R,ugm-3,11.39324,R,ugm-3,57.57595,R,ugm-3
05-01-2014,13:00,1.02185,R,ugm-3,12.13720,R,ugm-3,13.70402,R,ugm-3,55.97939,R,ugm-3
05-01-2014,14:00,1.12756,R,ugm-3,11.33013,R,ugm-3,13.05903,R,ugm-3,57.32648,R,ugm-3
05-01-2014,15:00,1.37421,R,ugm-3,11.00644,R,ugm-3,13.11353,R,ugm-3,59.42197,R,ugm-3
05-01-2014,16:00,0.98661,R,ugm-3,11.92253,R,ugm-3,13.43531,R,ugm-3,60.17036,R,ugm-3
05-01-2014,17:00,0.45807,R,ugm-3,11.22781,R,ugm-3,11.93018,R,ugm-3,60.86885,R,ugm-3
05-01-2014,18:00,0.49331,R,ugm-3,10.47572,R,ugm-3,11.23211,R,ugm-3,61.91659,R,ugm-3
05-01-2014,19:00,0.66949,R,ugm-3,8.96963,R,ugm-3,9.99616,R,ugm-3,63.36348,R,ugm-3
05-01-2014,20:00,0.42284,R,ugm-3,8.75638,R,ugm-3,9.40472,R,ugm-3,62.51530,R,ugm-3
05-01-2014,21:00,0.21142,R,ugm-3,6.28591,R,ugm-3,6.61008,R,ugm-3,63.21380,R,ugm-3
05-01-2014,22:00,0.24665,R,ugm-3,5.53334,R,ugm-3,5.91154,R,ugm-3,62.06627,R,ugm-3
05-01-2014,23:00,0.21142,R,ugm-3,4.02868,R,ugm-3,4.35285,R,ugm-3,68.50240,R,ugm-3
05-01-2014,24:00,9.54902,R,ugm-3,16.09799,R,ugm-3,30.73961,R,ugm-3,67.45466,R,ugm-3
06-01-2014,01:00,0.14095,R,ugm-3,3.07976,R,ugm-3,3.29588,R,ugm-3,74.63918,R,ugm-3
06-01-2014,02:00,0.14095,R,ugm-3,1.71870,R,ugm-3,1.93481,R,ugm-3,80.49323,R,ugm-3
06-01-2014,03:00,0.17618,R,ugm-3,1.50323,R,ugm-3,1.77337,R,ugm-3,82.37252,R,ugm-3
06-01-2014,04:00,0.14095,R,ugm-3,1.71886,R,ugm-3,1.93497,R,ugm-3,81.02542,R,ugm-3
06-01-2014,05:00,0.14095,R,ugm-3,2.47047,R,ugm-3,2.68658,R,ugm-3,78.43101,R,ugm-3
06-01-2014,06:00,-0.10571,R,ugm-3,3.97800,R,ugm-3,3.81592,R,ugm-3,76.73467,R,ugm-3
06-01-2014,07:00,0.21142,R,ugm-3,7.03800,R,ugm-3,7.36217,R,ugm-3,75.18800,R,ugm-3
06-01-2014,08:00,0.66949,R,ugm-3,12.73103,R,ugm-3,13.75757,R,ugm-3,70.34843,R,ugm-3
06-01-2014,09:00,0.95138,R,ugm-3,15.57731,R,ugm-3,17.03607,R,ugm-3,65.60864,R,ugm-3
06-01-2014,10:00,0.77520,R,ugm-3,12.40830,R,ugm-3,13.59692,R,ugm-3,68.25294,R,ugm-3
06-01-2014,11:00,0.77520,R,ugm-3,8.59191,R,ugm-3,9.78053,R,ugm-3,70.39832,R,ugm-3
06-01-2014,12:00,0.77520,R,ugm-3,6.87257,R,ugm-3,8.06119,R,ugm-3,71.29638,R,ugm-3
06-01-2014,13:00,0.24665,R,ugm-3,3.43772,R,ugm-3,3.81592,R,ugm-3,72.64348,R,ugm-3
06-01-2014,14:00,1.79705,R,ugm-3,12.50679,R,ugm-3,15.26223,R,ugm-3,62.01638,R,ugm-3
06-01-2014,15:00,0.28189,R,ugm-3,5.42528,R,ugm-3,5.85751,R,ugm-3,68.05337,R,ugm-3
06-01-2014,16:00,0.35236,R,ugm-3,3.97465,R,ugm-3,4.51493,R,ugm-3,70.99703,R,ugm-3
06-01-2014,17:00,0.24665,R,ugm-3,6.98445,R,ugm-3,7.36265,R,ugm-3,66.15746,R,ugm-3
06-01-2014,18:00,0.31713,R,ugm-3,5.53286,R,ugm-3,6.01912,R,ugm-3,69.64993,R,ugm-3
06-01-2014,19:00,0.17618,R,ugm-3,4.51302,R,ugm-3,4.78316,R,ugm-3,70.09896,R,ugm-3
06-01-2014,20:00,0.28189,R,ugm-3,4.67272,R,ugm-3,5.10494,R,ugm-3,69.60004,R,ugm-3
06-01-2014,21:00,0.31713,R,ugm-3,3.32871,R,ugm-3,3.81496,R,ugm-3,70.79746,R,ugm-3
06-01-2014,22:00,0.28189,R,ugm-3,3.38273,R,ugm-3,3.81496,R,ugm-3,68.65208,R,ugm-3
06-01-2014,23:00,0.17618,R,ugm-3,3.00788,R,ugm-3,3.27803,R,ugm-3,70.14886,R,ugm-3
06-01-2014,24:00,0.17618,R,ugm-3,2.20224,R,ugm-3,2.47238,R,ugm-3,69.99918,R,ugm-3
07-01-2014,01:00,0.00000,R,ugm-3,2.22360,R,ugm-3,2.22360,R,ugm-3,68.91817,R,ugm-3
07-01-2014,02:00,0.37585,R,ugm-3,1.86214,R,ugm-3,2.43844,R,ugm-3,70.78083,R,ugm-3
07-01-2014,03:00,0.10571,R,ugm-3,1.23595,R,ugm-3,1.39804,R,ugm-3,72.79316,R,ugm-3
07-01-2014,04:00,-0.07047,R,ugm-3,1.07626,R,ugm-3,0.96820,R,ugm-3,76.23574,R,ugm-3
07-01-2014,05:00,0.24665,R,ugm-3,1.39613,R,ugm-3,1.77432,R,ugm-3,74.48950,R,ugm-3
07-01-2014,06:00,0.10571,R,ugm-3,1.82787,R,ugm-3,1.98996,R,ugm-3,74.04047,R,ugm-3
07-01-2014,07:00,0.24665,R,ugm-3,3.87138,R,ugm-3,4.24958,R,ugm-3,71.94499,R,ugm-3
07-01-2014,08:00,0.38760,R,ugm-3,7.31292,R,ugm-3,7.90723,R,ugm-3,68.30283,R,ugm-3
07-01-2014,09:00,0.98786,R,ugm-3,14.56847,R,ugm-3,16.08317,R,ugm-3,59.77122,R,ugm-3
07-01-2014,10:00,0.95231,R,ugm-3,14.30072,R,ugm-3,15.76091,R,ugm-3,58.92304,R,ugm-3
07-01-2014,11:00,0.91739,R,ugm-3,5.53238,R,ugm-3,6.93903,R,ugm-3,67.10541,R,ugm-3
07-01-2014,12:00,0.88215,R,ugm-3,7.68347,R,ugm-3,9.03608,R,ugm-3,64.16176,R,ugm-3
07-01-2014,13:00,0.56409,R,ugm-3,6.28878,R,ugm-3,7.15371,R,ugm-3,64.71057,R,ugm-3
07-01-2014,14:00,0.74058,R,ugm-3,8.86922,R,ugm-3,10.00477,R,ugm-3,62.56520,R,ugm-3
07-01-2014,15:00,0.49362,R,ugm-3,4.19172,R,ugm-3,4.94859,R,ugm-3,69.60004,R,ugm-3
07-01-2014,16:00,0.52886,R,ugm-3,7.14988,R,ugm-3,7.96078,R,ugm-3,63.76262,R,ugm-3
07-01-2014,17:00,0.56409,R,ugm-3,9.83933,R,ugm-3,10.70426,R,ugm-3,59.47186,R,ugm-3
07-01-2014,18:00,2.60998,R,ugm-3,24.72098,R,ugm-3,28.72288,R,ugm-3,52.83616,R,ugm-3
07-01-2014,19:00,0.42284,R,ugm-3,9.03369,R,ugm-3,9.68203,R,ugm-3,57.62584,R,ugm-3
07-01-2014,20:00,0.28189,R,ugm-3,7.68921,R,ugm-3,8.12143,R,ugm-3,58.62369,R,ugm-3
07-01-2014,21:00,0.49362,R,ugm-3,7.31149,R,ugm-3,8.06836,R,ugm-3,59.07272,R,ugm-3
07-01-2014,22:00,0.42284,R,ugm-3,6.55892,R,ugm-3,7.20726,R,ugm-3,60.12046,R,ugm-3
07-01-2014,23:00,0.21142,R,ugm-3,5.64618,R,ugm-3,5.97035,R,ugm-3,61.76692,R,ugm-3
07-01-2014,24:00,0.10571,R,ugm-3,4.78699,R,ugm-3,4.94907,R,ugm-3,62.96434,R,ugm-3
08-01-2014,01:00,0.09396,R,ugm-3,2.79608,R,ugm-3,2.94015,R,ugm-3,62.79803,R,ugm-3
08-01-2014,02:00,0.00000,R,ugm-3,2.65328,R,ugm-3,2.65328,R,ugm-3,58.07487,R,ugm-3
08-01-2014,03:00,0.14095,R,ugm-3,2.29373,R,ugm-3,2.50984,R,ugm-3,59.12261,R,ugm-3
08-01-2014,04:00,0.03524,R,ugm-3,2.79655,R,ugm-3,2.85058,R,ugm-3,59.72132,R,ugm-3
08-01-2014,05:00,-0.07047,R,ugm-3,2.79751,R,ugm-3,2.68945,R,ugm-3,60.66928,R,ugm-3
08-01-2014,06:00,0.59964,R,ugm-3,3.38369,R,ugm-3,4.30313,R,ugm-3,63.11401,R,ugm-3
08-01-2014,07:00,1.65766,R,ugm-3,13.48743,R,ugm-3,16.02914,R,ugm-3,58.02498,R,ugm-3
08-01-2014,08:00,1.97510,R,ugm-3,23.11256,R,ugm-3,26.14101,R,ugm-3,50.59100,R,ugm-3
08-01-2014,09:00,0.56409,R,ugm-3,13.76522,R,ugm-3,14.63015,R,ugm-3,57.12691,R,ugm-3
08-01-2014,10:00,2.82139,R,ugm-3,22.56798,R,ugm-3,26.89405,R,ugm-3,48.29594,R,ugm-3
08-01-2014,11:00,3.66769,R,ugm-3,22.02435,R,ugm-3,27.64806,R,ugm-3,45.15271,R,ugm-3
08-01-2014,12:00,5.18440,R,ugm-3,18.94523,R,ugm-3,26.89453,R,ugm-3,47.09852,R,ugm-3
08-01-2014,13:00,1.41070,R,ugm-3,13.32869,R,ugm-3,15.49173,R,ugm-3,50.59100,R,ugm-3
08-01-2014,14:00,0.91708,R,ugm-3,12.47141,R,ugm-3,13.87758,R,ugm-3,50.39143,R,ugm-3
08-01-2014,15:00,0.70535,R,ugm-3,13.92587,R,ugm-3,15.00739,R,ugm-3,46.94884,R,ugm-3
08-01-2014,16:00,1.37577,R,ugm-3,23.76329,R,ugm-3,25.87278,R,ugm-3,34.87486,R,ugm-3
08-01-2014,17:00,1.76337,R,ugm-3,35.21773,R,ugm-3,37.92153,R,ugm-3,29.73593,R,ugm-3
08-01-2014,18:00,3.70292,R,ugm-3,30.68319,R,ugm-3,36.36093,R,ugm-3,43.95529,R,ugm-3
08-01-2014,19:00,23.52314,R,ugm-3,71.50933,R,ugm-3,107.57765,R,ugm-3,3.84172,R,ugm-3
08-01-2014,20:00,19.11487,R,ugm-3,66.59660,R,ugm-3,95.90566,R,ugm-3,4.54022,R,ugm-3
08-01-2014,21:00,7.01825,R,ugm-3,44.53352,R,ugm-3,55.29468,R,ugm-3,22.80087,R,ugm-3
08-01-2014,22:00,3.70323,R,ugm-3,38.48285,R,ugm-3,44.16106,R,ugm-3,25.99399,R,ugm-3
08-01-2014,23:00,2.57474,R,ugm-3,36.66263,R,ugm-3,40.61050,R,ugm-3,24.64690,R,ugm-3
08-01-2014,24:00,0.38760,R,ugm-3,14.95097,R,ugm-3,15.54528,R,ugm-3,39.71443,R,ugm-3
09-01-2014,01:00,0.32929,R,ugm-3,11.54449,R,ugm-3,12.04939,R,ugm-3,40.91185,R,ugm-3
09-01-2014,02:00,0.14095,R,ugm-3,9.60904,R,ugm-3,9.82515,R,ugm-3,41.84318,R,ugm-3
09-01-2014,03:00,0.03492,R,ugm-3,7.53095,R,ugm-3,7.58450,R,ugm-3,46.40003,R,ugm-3
09-01-2014,04:00,0.17618,R,ugm-3,6.93759,R,ugm-3,7.20773,R,ugm-3,50.14196,R,ugm-3
09-01-2014,05:00,0.17618,R,ugm-3,6.99162,R,ugm-3,7.26176,R,ugm-3,53.33508,R,ugm-3
09-01-2014,06:00,0.52948,R,ugm-3,17.52998,R,ugm-3,18.34183,R,ugm-3,38.46712,R,ugm-3
09-01-2014,07:00,0.42377,R,ugm-3,12.04445,R,ugm-3,12.69422,R,ugm-3,54.53250,R,ugm-3
09-01-2014,08:00,0.63519,R,ugm-3,24.84481,R,ugm-3,25.81875,R,ugm-3,45.25250,R,ugm-3
09-01-2014,09:00,1.76462,R,ugm-3,35.53760,R,ugm-3,38.24331,R,ugm-3,32.43013,R,ugm-3
09-01-2014,10:00,8.36564,R,ugm-3,51.50458,R,ugm-3,64.33172,R,ugm-3,17.06324,R,ugm-3
09-01-2014,11:00,6.53024,R,ugm-3,39.15079,R,ugm-3,49.16368,R,ugm-3,27.79012,R,ugm-3
09-01-2014,12:00,2.36488,R,ugm-3,23.26843,R,ugm-3,26.89453,R,ugm-3,47.14841,R,ugm-3
09-01-2014,13:00,1.76493,R,ugm-3,20.20843,R,ugm-3,22.91462,R,ugm-3,50.19186,R,ugm-3
09-01-2014,14:00,2.47090,R,ugm-3,23.96697,R,ugm-3,27.75563,R,ugm-3,47.69723,R,ugm-3
09-01-2014,15:00,1.37640,R,ugm-3,20.85773,R,ugm-3,22.96817,R,ugm-3,52.38713,R,ugm-3
09-01-2014,16:00,1.62399,R,ugm-3,26.66312,R,ugm-3,29.15319,R,ugm-3,44.75357,R,ugm-3
09-01-2014,17:00,1.27069,R,ugm-3,37.90958,R,ugm-3,39.85793,R,ugm-3,35.17421,R,ugm-3
09-01-2014,18:00,1.55351,R,ugm-3,38.39057,R,ugm-3,40.77259,R,ugm-3,32.23056,R,ugm-3
09-01-2014,19:00,2.36488,R,ugm-3,40.96527,R,ugm-3,44.59137,R,ugm-3,31.88131,R,ugm-3
09-01-2014,20:00,3.24735,R,ugm-3,32.72670,R,ugm-3,37.70589,R,ugm-3,33.57765,R,ugm-3
09-01-2014,21:00,1.97666,R,ugm-3,19.99088,R,ugm-3,23.02172,R,ugm-3,43.60605,R,ugm-3
09-01-2014,22:00,0.52979,R,ugm-3,14.89407,R,ugm-3,15.70641,R,ugm-3,46.79917,R,ugm-3
09-01-2014,23:00,0.45870,R,ugm-3,12.04445,R,ugm-3,12.74777,R,ugm-3,45.75142,R,ugm-3
09-01-2014,24:00,0.42346,R,ugm-3,11.66864,R,ugm-3,12.31793,R,ugm-3,43.25680,R,ugm-3
10-01-2014,01:00,0.42408,R,ugm-3,9.82069,R,ugm-3,10.47094,R,ugm-3,45.10282,R,ugm-3
10-01-2014,02:00,0.23491,R,ugm-3,7.95919,R,ugm-3,8.31938,R,ugm-3,46.83243,R,ugm-3
10-01-2014,03:00,0.24728,R,ugm-3,6.99019,R,ugm-3,7.36934,R,ugm-3,46.40003,R,ugm-3
10-01-2014,04:00,0.10571,R,ugm-3,5.16327,R,ugm-3,5.32536,R,ugm-3,47.24820,R,ugm-3
10-01-2014,05:00,0.28220,R,ugm-3,8.01242,R,ugm-3,8.44512,R,ugm-3,43.45637,R,ugm-3
10-01-2014,06:00,0.14095,R,ugm-3,8.28256,R,ugm-3,8.49867,R,ugm-3,43.45637,R,ugm-3
10-01-2014,07:00,0.52979,R,ugm-3,9.19195,R,ugm-3,10.00429,R,ugm-3,45.70153,R,ugm-3
10-01-2014,08:00,0.98880,R,ugm-3,16.39538,R,ugm-3,17.91152,R,ugm-3,41.46067,R,ugm-3
10-01-2014,09:00,3.10609,R,ugm-3,29.66192,R,ugm-3,34.42452,R,ugm-3,37.46927,R,ugm-3
10-01-2014,10:00,6.24773,R,ugm-3,37.48500,R,ugm-3,47.06471,R,ugm-3,35.97249,R,ugm-3
10-01-2014,11:00,1.83571,R,ugm-3,15.58066,R,ugm-3,18.39538,R,ugm-3,46.10067,R,ugm-3
10-01-2014,12:00,2.25917,R,ugm-3,14.17880,R,ugm-3,17.64281,R,ugm-3,47.29809,R,ugm-3
10-01-2014,13:00,1.55320,R,ugm-3,9.77479,R,ugm-3,12.15633,R,ugm-3,54.58240,R,ugm-3
10-01-2014,14:00,1.30624,R,ugm-3,9.07768,R,ugm-3,11.08055,R,ugm-3,55.53035,R,ugm-3
10-01-2014,15:00,1.34147,R,ugm-3,13.64903,R,ugm-3,15.70593,R,ugm-3,49.94239,R,ugm-3
10-01-2014,16:00,1.48273,R,ugm-3,20.10277,R,ugm-3,22.37625,R,ugm-3,40.06368,R,ugm-3
10-01-2014,17:00,1.09451,R,ugm-3,22.90362,R,ugm-3,24.58184,R,ugm-3,37.51916,R,ugm-3
10-01-2014,18:00,1.09419,R,ugm-3,25.27034,R,ugm-3,26.94808,R,ugm-3,37.21981,R,ugm-3
10-01-2014,19:00,1.41194,R,ugm-3,29.03318,R,ugm-3,31.19813,R,ugm-3,32.67959,R,ugm-3
10-01-2014,20:00,0.98817,R,ugm-3,24.89501,R,ugm-3,26.41019,R,ugm-3,34.47572,R,ugm-3
10-01-2014,21:00,0.45870,R,ugm-3,20.16683,R,ugm-3,20.87016,R,ugm-3,38.56690,R,ugm-3
10-01-2014,22:00,0.49424,R,ugm-3,14.35666,R,ugm-3,15.11449,R,ugm-3,44.40433,R,ugm-3
10-01-2014,23:00,0.45838,R,ugm-3,8.81758,R,ugm-3,9.52043,R,ugm-3,50.79057,R,ugm-3
10-01-2014,24:00,0.84692,R,ugm-3,23.12117,R,ugm-3,24.41976,R,ugm-3,38.06798,R,ugm-3
11-01-2014,01:00,0.28272,R,ugm-3,16.07711,R,ugm-3,16.51061,R,ugm-3,47.89680,R,ugm-3
11-01-2014,02:00,0.18876,R,ugm-3,15.71756,R,ugm-3,16.00699,R,ugm-3,48.49551,R,ugm-3
11-01-2014,03:00,0.03555,R,ugm-3,15.82737,R,ugm-3,15.88188,R,ugm-3,51.33938,R,ugm-3
11-01-2014,04:00,0.07078,R,ugm-3,9.09728,R,ugm-3,9.20582,R,ugm-3,59.67143,R,ugm-3
11-01-2014,05:00,0.63581,R,ugm-3,23.30525,R,ugm-3,24.28014,R,ugm-3,42.60820,R,ugm-3
11-01-2014,06:00,1.16560,R,ugm-3,31.64566,R,ugm-3,33.43289,R,ugm-3,37.56905,R,ugm-3
11-01-2014,07:00,3.46282,R,ugm-3,23.38557,R,ugm-3,28.69515,R,ugm-3,43.40648,R,ugm-3
11-01-2014,08:00,8.26679,R,ugm-3,40.78454,R,ugm-3,53.46011,R,ugm-3,37.66884,R,ugm-3
11-01-2014,09:00,1.30717,R,ugm-3,25.07574,R,ugm-3,27.08004,R,ugm-3,43.65594,R,ugm-3
11-01-2014,10:00,1.58968,R,ugm-3,34.92512,R,ugm-3,37.36260,R,ugm-3,39.11572,R,ugm-3
11-01-2014,11:00,3.46219,R,ugm-3,34.15343,R,ugm-3,39.46205,R,ugm-3,42.35873,R,ugm-3
11-01-2014,12:00,3.00288,R,ugm-3,23.87565,R,ugm-3,28.47999,R,ugm-3,49.29379,R,ugm-3
11-01-2014,13:00,2.57879,R,ugm-3,19.24979,R,ugm-3,23.20388,R,ugm-3,52.88605,R,ugm-3
11-01-2014,14:00,1.51921,R,ugm-3,16.94427,R,ugm-3,19.27370,R,ugm-3,55.08132,R,ugm-3
11-01-2014,15:00,1.13068,R,ugm-3,12.80228,R,ugm-3,14.53596,R,ugm-3,58.47401,R,ugm-3
11-01-2014,16:00,1.44843,R,ugm-3,28.57418,R,ugm-3,30.79508,R,ugm-3,38.76647,R,ugm-3
11-01-2014,17:00,2.43785,R,ugm-3,40.78502,R,ugm-3,44.52300,R,ugm-3,26.84217,R,ugm-3
11-01-2014,18:00,7.52527,R,ugm-3,43.10584,R,ugm-3,54.64443,R,ugm-3,20.60560,R,ugm-3
11-01-2014,19:00,8.23187,R,ugm-3,53.11252,R,ugm-3,65.73454,R,ugm-3,13.27141,R,ugm-3
11-01-2014,20:00,11.48233,R,ugm-3,55.88134,R,ugm-3,73.48733,R,ugm-3,8.63140,R,ugm-3
11-01-2014,21:00,4.73444,R,ugm-3,44.04679,R,ugm-3,51.30616,R,ugm-3,17.06324,R,ugm-3
11-01-2014,22:00,1.37764,R,ugm-3,29.16658,R,ugm-3,31.27894,R,ugm-3,25.79442,R,ugm-3
11-01-2014,23:00,1.51890,R,ugm-3,31.85699,R,ugm-3,34.18594,R,ugm-3,23.20001,R,ugm-3
11-01-2014,24:00,0.84816,R,ugm-3,23.84123,R,ugm-3,25.14173,R,ugm-3,31.48217,R,ugm-3
12-01-2014,01:00,1.50757,R,ugm-3,28.19663,R,ugm-3,30.50820,R,ugm-3,25.01277,R,ugm-3
12-01-2014,02:00,2.26094,R,ugm-3,31.99358,R,ugm-3,35.46030,R,ugm-3,20.68876,R,ugm-3
12-01-2014,03:00,1.02435,R,ugm-3,19.69493,R,ugm-3,21.26557,R,ugm-3,33.92690,R,ugm-3
12-01-2014,04:00,0.60058,R,ugm-3,18.02962,R,ugm-3,18.95048,R,ugm-3,35.02454,R,ugm-3
12-01-2014,05:00,0.31806,R,ugm-3,13.24072,R,ugm-3,13.72840,R,ugm-3,45.55185,R,ugm-3
12-01-2014,06:00,0.42377,R,ugm-3,9.47166,R,ugm-3,10.12143,R,ugm-3,50.44132,R,ugm-3
12-01-2014,07:00,0.63550,R,ugm-3,9.14653,R,ugm-3,10.12095,R,ugm-3,49.74282,R,ugm-3
12-01-2014,08:00,0.95387,R,ugm-3,14.58042,R,ugm-3,16.04301,R,ugm-3,43.70583,R,ugm-3
12-01-2014,09:00,1.20115,R,ugm-3,20.50057,R,ugm-3,22.34230,R,ugm-3,37.21981,R,ugm-3
12-01-2014,10:00,2.29659,R,ugm-3,21.45921,R,ugm-3,24.98060,R,ugm-3,36.47142,R,ugm-3
12-01-2014,11:00,2.36738,R,ugm-3,18.71286,R,ugm-3,22.34278,R,ugm-3,45.75142,R,ugm-3
12-01-2014,12:00,2.82638,R,ugm-3,20.10803,R,ugm-3,24.44175,R,ugm-3,48.29594,R,ugm-3
12-01-2014,13:00,2.54356,R,ugm-3,22.69564,R,ugm-3,26.59570,R,ugm-3,44.60390,R,ugm-3
12-01-2014,14:00,2.40230,R,ugm-3,23.07336,R,ugm-3,26.75683,R,ugm-3,39.51486,R,ugm-3
12-01-2014,15:00,2.08455,R,ugm-3,19.84601,R,ugm-3,23.04228,R,ugm-3,40.01379,R,ugm-3
12-01-2014,16:00,1.59000,R,ugm-3,17.75135,R,ugm-3,20.18931,R,ugm-3,39.71443,R,ugm-3
12-01-2014,17:00,1.44843,R,ugm-3,18.07552,R,ugm-3,20.29641,R,ugm-3,37.51916,R,ugm-3
12-01-2014,18:00,1.34272,R,ugm-3,15.06142,R,ugm-3,17.12022,R,ugm-3,39.61465,R,ugm-3
12-01-2014,19:00,1.23639,R,ugm-3,15.22446,R,ugm-3,17.12022,R,ugm-3,37.21981,R,ugm-3
12-01-2014,20:00,1.05989,R,ugm-3,14.74107,R,ugm-3,16.36622,R,ugm-3,37.26970,R,ugm-3
12-01-2014,21:00,0.63550,R,ugm-3,12.53835,R,ugm-3,13.51277,R,ugm-3,38.96604,R,ugm-3